Tracking 30922 objects as of 2-Jul-2025
HD Live streaming from Space Station
objects crossing your sky now

OPS 4682 DEB

Track OPS 4682 DEB now!
10-day predictions


NORAD ID: 29059
Int'l Code: 1965-027BJ
Perigee: 1,267.1 km
Apogee: 1,317.2 km
Inclination: 90.2 °
Period: 111.3 minutes
Semi major axis: 7663 km
RCS: 0.0242 m2 (small)
Launch date: April 3, 1965
Source: United States (US)
Launch site: AIR FORCE WESTERN TEST RANGE (AFWTR)

Note: This is SATELLITE DEBRIS
Your satellite tracking list
DELTA 1 DEB
Track 1 satellite(s)




NASA's NSSDC Master Catalog

Two Line Element Set (TLE):
1 29059U 65027BJ  25181.50314258  .00000309  00000-0  10849-2 0  9996
2 29059  90.2348 358.6437 0032728  70.8486 345.6573 12.94168079110129
Source of the keplerian elements: AFSPC